Wisconsin Rapids, WI

11:12 AM CDT on March 26, 2017 (GMT -0500)
Alexander Field South Wood County

Weather History for KISW - March, 2013

Change the Weather History Date:

Sunday, March 31, 2013

  Actual Average Record
Temperature  
Mean Temperature 34 °F -  
Max Temperature 39 °F 49 °F 80 °F (1986)
Min Temperature 28 °F 26 °F -1 °F (1969)
Degree Days  
Heating Degree Days 30    
Moisture  
Dew Point 29 °F    
Average Humidity 81    
Maximum Humidity 100    
Minimum Humidity 41    
Precipitation  
Precipitation 0.02 in - - ()
Sea Level Pressure  
Sea Level Pressure 29.78 in    
Wind  
Wind Speed 7 mph (West)    
Max Wind Speed 22 mph    
Max Gust Speed 33 mph    
Visibility 4 miles    
Events Fog , Rain , Snow    
Averages and records for this station are not official NWS values.
T = Trace of Precipitation, MM = Missing Value Source: NWS Daily Summary

Daily Weather History Graph

Daily Weather History Graph

Search for Another Location

Airport or City:

Trip Planner

Search our weather history database for the weather conditions in past years. The results will help you decide how hot, cold, wet, or windy it might be!

Date:

Astronomy

Mar. 31, 2013 Rise Set
Actual Time 6:41 AM CDT 7:25 PM CDT
Civil Twilight 6:12 AM CDT 7:55 PM CDT
Nautical Twilight 5:37 AM CDT 8:30 PM CDT
Astronomical Twilight 5:01 AM CDT 9:06 PM CDT
Moon No Moon Rise 9:19 AM CDT (3/31)
Length of Visible Light 13h 42m
Length of Day
12h 43m
Waning Gibbous, 77% of the Moon is Illuminated
Mar 31
Waning Gibbous
Apr 2
Last Quarter
Apr 10
New
Apr 18
First Quarter
Apr 25
Full

Hourly Weather History & Observations

Time (CDT) Temp. Windchill Dew Point Humidity Pressure Visibility Wind Dir Wind Speed Gust Speed Precip Events Conditions
12:54 AM 36.0 °F - 34.0 °F 93% 29.83 in 4.0 mi Calm Calm - N/A   Mostly Cloudy
1:04 AM 35.6 °F - 33.8 °F 93% 29.80 in 2.5 mi Calm Calm - N/A   Scattered Clouds
1:07 AM 33.8 °F 30.8 °F 33.8 °F 100% 29.80 in 1.0 mi SW 3.5 mph - N/A   Mist
1:10 AM 33.8 °F 30.8 °F 33.8 °F 100% 29.80 in 0.5 mi SW 3.5 mph - N/A Fog Fog
1:46 AM 35.6 °F 30.7 °F 33.8 °F 93% 29.79 in 1.0 mi SW 5.8 mph - N/A   Mostly Cloudy
1:50 AM 35.6 °F 30.7 °F 33.8 °F 93% 29.79 in 1.5 mi SW 5.8 mph - N/A   Overcast
1:54 AM 35.1 °F 29.3 °F 33.1 °F 92% 29.81 in 1.8 mi SW 6.9 mph - N/A   Overcast
2:12 AM 35.6 °F 30.7 °F 33.8 °F 93% 29.78 in 0.8 mi SW 5.8 mph - N/A   Overcast
2:33 AM 35.6 °F 30.7 °F 33.8 °F 93% 29.77 in 1.0 mi SW 5.8 mph - N/A   Overcast
2:50 AM 35.6 °F 30.7 °F 33.8 °F 93% 29.76 in 0.8 mi WSW 5.8 mph - N/A   Overcast
2:54 AM 36.0 °F 32.1 °F 34.0 °F 93% 29.79 in 0.5 mi WSW 4.6 mph - N/A Fog Fog
3:54 AM 37.0 °F 31.0 °F 35.1 °F 93% 29.78 in 0.5 mi West 8.1 mph - N/A Fog Fog
4:02 AM 37.4 °F 32.1 °F 35.6 °F 93% 29.75 in 1.2 mi West 6.9 mph - N/A   Overcast
4:13 AM 37.4 °F 32.8 °F 35.6 °F 93% 29.75 in 2.5 mi Variable 5.8 mph - N/A   Overcast
4:29 AM 37.4 °F 32.1 °F 35.6 °F 93% 29.75 in 2.5 mi West 6.9 mph - N/A   Overcast
4:54 AM 36.0 °F 29.6 °F 34.0 °F 93% 29.77 in 3.0 mi West 8.1 mph - N/A   Overcast
5:32 AM 35.6 °F 29.2 °F 33.8 °F 93% 29.74 in 4.0 mi West 8.1 mph - N/A   Overcast
5:54 AM 35.1 °F 29.3 °F 33.1 °F 92% 29.77 in 3.0 mi West 6.9 mph - N/A   Overcast
6:18 AM 35.6 °F 30.7 °F 33.8 °F 93% 29.72 in 3.0 mi SW 5.8 mph - N/A   Overcast
6:54 AM 34.0 °F 27.2 °F 32.0 °F 92% 29.77 in 3.0 mi West 8.1 mph - N/A   Overcast
7:11 AM 33.8 °F 26.4 °F 32.0 °F 93% 29.74 in 2.5 mi WNW 9.2 mph - N/A   Overcast
7:20 AM 33.8 °F 25.3 °F 30.2 °F 87% 29.74 in 3.0 mi WNW 11.5 mph 18.4 mph N/A   Overcast
7:38 AM 33.8 °F 30.8 °F 32.0 °F 93% 29.74 in 2.5 mi West 3.5 mph - N/A   Overcast
7:54 AM 34.0 °F 28.0 °F 30.9 °F 89% 29.76 in 2.5 mi West 6.9 mph - N/A   Overcast
8:30 AM 33.8 °F 28.6 °F 30.2 °F 87% 29.73 in 3.0 mi West 5.8 mph - N/A   Overcast
8:54 AM 34.0 °F 28.0 °F 30.9 °F 89% 29.75 in 3.0 mi West 6.9 mph - N/A   Overcast
9:36 AM 35.6 °F 28.0 °F 30.2 °F 81% 29.72 in 4.0 mi West 10.4 mph 16.1 mph N/A   Haze
9:54 AM 36.0 °F 29.6 °F 30.0 °F 79% 29.75 in 5.0 mi WSW 8.1 mph - N/A   Haze
10:54 AM 37.0 °F 28.9 °F 30.0 °F 76% 29.74 in 6.0 mi WSW 12.7 mph 20.7 mph 0.01 in   Haze
11:54 AM 37.0 °F 28.5 °F 28.9 °F 73% 29.75 in 6.0 mi West 13.8 mph 20.7 mph N/A   Haze
12:54 PM 35.1 °F 27.4 °F 28.9 °F 78% 29.76 in 5.0 mi West 10.4 mph - 0.00 in Rain Light Rain
1:14 PM 35.6 °F 28.6 °F 30.2 °F 81% 29.74 in 4.0 mi WNW 9.2 mph - 0.00 in Rain Light Rain
1:54 PM 36.0 °F 29.6 °F 30.9 °F 82% 29.77 in 6.0 mi West 8.1 mph - 0.00 in   Haze
2:05 PM 35.6 °F 29.2 °F 30.2 °F 81% 29.74 in 6.0 mi West 8.1 mph - N/A   Haze
2:18 PM 35.6 °F 28.6 °F 30.2 °F 81% 29.74 in 7.0 mi WNW 9.2 mph 18.4 mph 0.00 in Rain Light Rain
2:54 PM 37.9 °F 29.2 °F 28.9 °F 70% 29.76 in 10.0 mi West 15.0 mph 20.7 mph 0.00 in   Mostly Cloudy
3:09 PM 39.2 °F 30.2 °F 28.4 °F 65% 29.73 in 10.0 mi WNW 17.3 mph 23.0 mph N/A   Mostly Cloudy
3:39 PM 35.6 °F 24.2 °F 28.4 °F 75% 29.74 in 1.5 mi NNW 21.9 mph 33.4 mph 0.00 in Snow Light Snow
3:42 PM 33.8 °F 23.2 °F 28.4 °F 81% 29.74 in 1.0 mi NNW 17.3 mph 33.4 mph 0.00 in Snow Light Snow
3:52 PM 33.8 °F 25.8 °F 28.4 °F 81% 29.75 in 2.0 mi NW 10.4 mph 23.0 mph 0.01 in Snow Light Snow
3:54 PM 34.0 °F 25.5 °F 28.9 °F 82% 29.78 in 6.0 mi NW 11.5 mph - 0.01 in Snow Light Snow
4:10 PM 35.6 °F 28.6 °F 28.4 °F 75% 29.74 in 9.0 mi WNW 9.2 mph 18.4 mph 0.00 in   Overcast
4:54 PM 37.9 °F 27.6 °F 24.1 °F 57% 29.78 in 10.0 mi NW 20.7 mph 27.6 mph 0.00 in   Scattered Clouds
5:54 PM 37.0 °F 27.7 °F 17.1 °F 44% 29.81 in 10.0 mi NW 16.1 mph 24.2 mph N/A   Scattered Clouds
6:54 PM 36.0 °F 25.6 °F 14.0 °F 41% 29.84 in 10.0 mi NW 18.4 mph 27.6 mph N/A   Scattered Clouds
7:54 PM 33.1 °F 24.4 °F 14.0 °F 46% 29.87 in 10.0 mi NW 11.5 mph 18.4 mph N/A   Clear
8:54 PM 32.0 °F 24.2 °F 15.1 °F 50% 29.90 in 10.0 mi WNW 9.2 mph - N/A   Overcast
9:54 PM 32.0 °F 24.2 °F 14.0 °F 48% 29.93 in 10.0 mi NW 9.2 mph - N/A   Overcast
10:54 PM 30.0 °F 20.5 °F 15.1 °F 54% 29.95 in 10.0 mi NNW 11.5 mph 19.6 mph N/A   Overcast
11:54 PM 28.0 °F 18.6 °F 14.0 °F 56% 29.97 in 10.0 mi NW 10.4 mph - N/A   Mostly Cloudy